[TLELIST] Archives

 

Current TLEs

September 16th 2006 PDT

HST 1 20580U 90037B 06258.91293015 .00000482 00000-0 24716-4 0 6989 2 20580 028.4680 178.4427 0003604 071.9690 288.1288 15.00093404698739 ISS (ZARYA) 1 25544U 98067A 06259.47707632 .00014917 00000-0 98494-4 0 6748 2 25544 051.6353 077.1927 0011229 348.1879 050.2425 15.75790455447565 CXO 1 25867U 99040B 06257.66666667 +.00000000 +00000-0 +00000-0 0 09742 2 25867 060.1471 095.0977 5910703 289.0890 359.9168 00.37790118001229 ____________________________________________________________________ These 2-Line ...Continue Reading

Current TLEs

September 15th 2006 PDT

HST 1 20580U 90037B 06256.91697540 +.00000479 +00000-0 +24514-4 0 07183 2 20580 028.4683 191.4537 0003462 049.8085 310.2805 15.00092115698430 ISS (ZARYA) 1 25544U 98067A 06258.16481481 .00028313 00000-0 18306-3 0 6685 2 25544 051.6342 083.9519 0011387 342.8609 166.3913 15.75765342447357 CXO 1 25867U 99040B 06257.66666667 +.00000000 +00000-0 +00000-0 0 09742 2 25867 060.1471 095.0977 5910703 289.0890 359.9168 00.37790118001229 ____________________________________________________________________ These 2-Line ...Continue Reading

Current TLEs

September 14th 2006 PDT

HST 1 20580U 90037B 06256.91697540 +.00000479 +00000-0 +24514-4 0 07183 2 20580 028.4683 191.4537 0003462 049.8085 310.2805 15.00092115698430 ISS (ZARYA) 1 25544U 98067A 06256.96061816 +.00022214 +00000-0 +14349-3 0 06606 2 25544 051.6338 090.1459 0011748 336.3375 177.2662 15.75940890447168 CXO 1 25867U 99040B 06257.66666667 +.00000000 +00000-0 +00000-0 0 09742 2 25867 060.1471 095.0977 5910703 289.0890 359.9168 00.37790118001229 ____________________________________________________________________ These 2-Line ...Continue Reading

Current TLEs

September 13th 2006 PDT

HST 1 20580U 90037B 06255.91899708 .00000472 00000-0 23931-4 0 6962 2 20580 028.4684 197.9589 0003399 038.3031 321.7798 15.00091442698285 ISS (ZARYA) 1 25544U 98067A 06256.13425926 .00022264 00000-0 14407-3 0 6555 2 25544 051.6337 094.4005 0011243 334.6327 167.6319 15.75906407447033 CXO 1 25867U 99040B 06255.04166667 .00000235 00000-0 00000+0 0 9724 2 25867 060.1214 095.1514 5914122 289.1400 002.5227 00.37801579 1219 ____________________________________________________________________ These 2-Line ...Continue Reading

Current TLEs

September 12th 2006 PDT

HST 1 20580U 90037B 06253.92303868 +.00000480 +00000-0 +24575-4 0 07019 2 20580 028.4685 210.9702 0003302 014.9437 345.1251 15.00090275697986 ISS (ZARYA) 1 25544U 98067A 06255.18425926 .00014319 00000-0 94570-4 0 6494 2 25544 051.6329 099.2949 0011301 332.0138 176.9409 15.75825592446881 CXO 1 25867U 99040B 06255.04166667 .00000000 00000-0 00000+0 0 9713 2 25867 060.1214 095.1514 5914122 289.1400 002.5227 00.37801672 1213 ____________________________________________________________________ These 2-Line ...Continue Reading

Current TLEs

September 11th 2006 PDT

HST 1 20580U 90037B 06252.92505997 +.00000491 +00000-0 +25466-4 0 07118 2 20580 028.4689 217.4792 0003395 003.4717 356.5923 15.00089724697830 ISS (ZARYA) 1 25544U 98067A 06254.16085845 .00014210 00000-0 94015-4 0 6453 2 25544 051.6332 104.5656 0011228 327.6796 131.6820 15.75794501446721 CXO 1 25867U 99040B 06255.04166667 .00000000 00000-0 00000+0 0 9713 2 25867 060.1214 095.1514 5914122 289.1400 002.5227 00.37801672 1213 ____________________________________________________________________ These 2-Line ...Continue Reading

Current TLEs

September 10th 2006 PDT

HST 1 20580U 90037B 06253.19118692 .00000478 00000-0 24479-4 0 6948 2 20580 028.4685 215.7406 0003302 006.9369 353.1264 15.00089798697874 ISS (ZARYA) 1 25544U 98067A 06253.38071759 .00014402 00000-0 95316-4 0 6408 2 25544 051.6331 108.5823 0011176 324.6962 026.0817 15.75772460446592 CXO 1 25867U 99040B 06252.37500000 .00000000 00000-0 00000+0 0 9708 2 25867 060.0869 095.2763 5915255 289.0953 359.5448 00.37810092 1211 ____________________________________________________________________ These 2-Line ...Continue Reading

Current TLEs

September 9th 2006 PDT

HST 1 20580U 90037B 06251.32829155 .00000474 00000-0 24118-4 0 6939 2 20580 028.4688 227.8877 0003437 347.5881 012.4623 15.00088579697594 ISS (ZARYA) 1 25544U 98067A 06252.44258404 .00014635 00000-0 96907-4 0 6335 2 25544 051.6331 113.4131 0011142 320.8285 104.5775 15.75745231446454 CXO 1 25867U 99040B 06252.37500000 .00000000 00000-0 00000+0 0 9708 2 25867 060.0869 095.2763 5915255 289.0953 359.5448 00.37810092 1211 ____________________________________________________________________ These 2-Line ...Continue Reading

Current TLEs

September 8th 2006 PDT

HST 1 20580U 90037B 06249.39886175 +.00000454 +00000-0 +22550-4 0 07126 2 20580 028.4692 240.4648 0003474 325.8521 034.1846 15.00087268697308 ISS (ZARYA) 1 25544U 98067A 06251.24453902 .00014984 00000-0 99260-4 0 6288 2 25544 051.6328 119.5827 0011163 316.0972 148.6681 15.75709975446261 CXO 1 25867U 99040B 06249.75000000 .00000000 00000-0 00000+0 0 9699 2 25867 060.0688 095.4029 5906408 289.0387 002.2811 00.37800074 1213 ____________________________________________________________________ These 2-Line ...Continue Reading

Current TLEs

September 7th 2006 PDT

HST 1 20580U 90037B 06249.39886175 +.00000454 +00000-0 +22550-4 0 07126 2 20580 028.4692 240.4648 0003474 325.8521 034.1846 15.00087268697308 ISS (ZARYA) 1 25544U 98067A 06250.22889086 .00014730 00000-0 97799-4 0 6230 2 25544 051.6327 124.8115 0011019 311.5490 148.0609 15.75677564446109 CXO 1 25867U 99040B 06249.75000000 .00000000 00000-0 00000+0 0 9699 2 25867 060.0688 095.4029 5906408 289.0387 002.2811 00.37800074 1213 ____________________________________________________________________ These 2-Line ...Continue Reading
  • This mailing list is a public mailing list - anyone may join or leave, at any time.
  • This mailing list is announce-only.

International Space Station (ISS) / Hubble Space Telescope (HST) / Chandra X-Ray Observatory Orbital Data via EMAIL

Privacy Policy:

Private list